Regional Weather Roundup
Issued by NWS Northern Indiana

Home | Current Version | Previous Version | Graphics & Text | Print | Product List | Glossary On
Versions: 1 2 3 4 5 6 7 8 9 10 11 12 13 14 15 16 17 18 19 20 21 22 23 24 25 26 27 28 29 30 31 32 33 34 35 36 37 38 39 40 41 42 43 44 45 46 47 48 49 50
000
ASUS43 KIWX 271910
RWRIWX

KIWX WEATHER ROUNDUP
NATIONAL WEATHER SERVICE NORTHERN INDIANA
300 PM EDT THU JUL 27 2017

NOTE: "FAIR" INDICATES FEW OR NO CLOUDS BELOW 12,000 FEET WITH NO
SIGNIFICANT WEATHER AND/OR OBSTRUCTIONS TO VISIBILITY.

* THESE STATIONS ARE NOT UNDER NWS QUALITY CONTROL. THEY ALSO MAY NOT
  REPORT WEATHER SUCH AS PRECIPITATION OR FOG.

INZ001>027-272000-
NORTHERN INDIANA

CITY           SKY/WX    TMP DP  RH WIND       PRES   REMARKS
GARY*          CLOUDY    75  70  83 N12       29.94F
VALPARAISO     MOSUNNY   84  73  69 N8        29.92F
MICHIGAN CITY* CLOUDY    77  72  83 N13       29.93F
LAPORTE*       CLOUDY    79  73  80 N9        29.92S
KNOX*          CLOUDY    79  72  78 N7        29.91F
SOUTH BEND     PTSUNNY   84  72  67 VRB5      29.90F
ELKHART*       MOSUNNY   82  70  65 CALM      29.90F
GOSHEN         PTSUNNY   80  70  71 CALM      29.90F
MONTICELLO*    PTSUNNY   83  73  70 NW9       29.89F
LOGANSPORT*    CLOUDY    77  72  83 N5        29.91S
ROCHESTER*     MOSUNNY   82  73  74 N5        29.91F
WARSAW*        CLOUDY    73  72  94 CALM      29.91F
AUBURN*        CLOUDY    79  72  78 CALM      29.91F
FORT WAYNE     PTSUNNY   81  72  74 SW5       29.90F
HUNTINGTON*    CLOUDY    76  74  93 CALM      29.91F
PERU/GRISSOM   LGT RAIN  82  72  70 N10       29.89F
MARION*        CLOUDY    79  72  78 CALM      29.91F

$$
INZ028>050-272000-
CENTRAL INDIANA

CITY           SKY/WX    TMP DP  RH WIND       PRES   REMARKS
LAFAYETTE      CLOUDY    82  76  81 W6        29.89F
KOKOMO*        CLOUDY    79  73  83 NW6       29.91S
MUNCIE*        PTSUNNY   83  71  67 NW6       29.91F
INDIANAPOLIS   CLOUDY    78  72  81 W15       29.92S

$$
MIZ043>046-050>051-056>058-064>065-071>073-077>080-272000-
SOUTHWEST LOWER MICHIGAN

CITY           SKY/WX    TMP DP  RH WIND       PRES   REMARKS
BATTLE CREEK   PTSUNNY   84  67  56 NE7       29.92F
BENTON HARBOR  SUNNY     79  69  71 N8G18     29.91F
COLDWATER*     SUNNY     84  62  46 NE6       29.91F
HILLSDALE*     CLOUDY    81  61  50 NE3       29.91F
HOLLAND        PTSUNNY   81  66  60 NE9G17    29.93F
GRAND RAPIDS   PTSUNNY   80  69  69 NE6       29.94F
KALAMAZOO      PTSUNNY   87  63  44 NE7       29.91F
STURGIS*       PTSUNNY   82  68  63 E9        29.90
THREE RIVERS*  PTSUNNY   84  67  57 E3        29.90F

$$
OHZ001>008-015>018-024>025-272000-
NORTHWEST OHIO

CITY           SKY/WX    TMP DP  RH WIND       PRES   REMARKS
WAUSEON*       FAIR      84  70  61 E5        29.90F
DEFIANCE       PTSUNNY   83  69  62 NE6       29.89F
FINDLAY        CLOUDY    83  67  58 VRB3      29.88F
TOLEDO EXPRESS CLOUDY    83  69  62 E6        29.89F
TOLEDO METCALF CLOUDY    83  70  64 E8        29.90F
LIMA           CLOUDY    78  71  79 S5        29.90F

$$
AND FOR LAKE MICHIGAN COASTAL AND OPEN LAKE BUOY OBSERVATIONS

STATION/POSITION TEMP    WIND        PRES    VSBY  WAVE
                 AIR SEA DIR/SP/G                  HT/PER
                 (F)     (DEG/KT/KT) (MB)    (MI)  (FT/S)
CALUMET HARBOR    73     350/ 14/ 19 1013.5F
MICHIGAN CITY     74     360/ 14/ 15   N/A
BURNS HARBOR      73     360/ 11/ 14 1013.9F
SAINT JOSEPH      76      10/  9/ 12 1014.2
SOUTH LAKE BUOY   70 71   10/ 14/ 17 1014.0F         1/ 3
4 MI NW BRIDGMAN  73 74   30/ 14/ 17 1013.0          2/ 2
MICHIGAN CITY     73 75   10/ 14/ 17   N/A           2/ 2

$$
&&




USA.gov is the U.S. government's official web portal to all federal, state and local government web resources and services.